OSCAR 7 (AO-7) 1 07530U 74089B 26093.62468330 -.00000043 00000+0 25018-4 0 9992 2 07530 101.9952 106.0831 0011867 273.4318 205.9727 12.53696961351171 PHASE 3B (AO-10) 1 14129U 83058B 26092.61498185 .00000195 00000+0 00000+0 0 9995 2 14129 25.9057 232.2039 6038024 94.7765 332.2066 2.05870088293935 UOSAT 2 (UO-11) 1 14781U 84021B 26094.18329683 .00003206 00000+0 33299-3 0 9996 2 14781 97.7993 60.6249 0009166 72.6649 287.5571 14.90602466246106 LUSAT (LO-19) 1 20442U 90005G 26094.01731563 .00000253 00000+0 10721-3 0 9996 2 20442 98.8912 113.7598 0012583 66.2377 294.0125 14.34099458891766 EYESAT A (AO-27) 1 22825U 93061C 26094.15972690 .00000199 00000+0 92914-4 0 9995 2 22825 98.6932 161.5826 0007592 323.8735 36.1933 14.30922179696410 ITAMSAT (IO-26) 1 22826U 93061D 26094.16114094 .00000219 00000+0 99637-4 0 9995 2 22826 98.6881 161.4941 0007876 305.2501 54.7944 14.31347129696720 RADIO ROSTO (RS15) 1 23439U 94085A 26094.23797833 -.00000048 00000+0 -16220-3 0 9997 2 23439 64.8166 62.8093 0153645 17.2967 343.3112 11.27583865287569 JAS-2 (FO-29) 1 24278U 96046B 26094.15339581 .00000018 00000+0 56847-4 0 9996 2 24278 98.5336 313.1239 0348901 288.6176 67.7379 13.53270501463159 TECHSAT 1B (GO-32) 1 25397U 98043D 26094.23862254 .00000130 00000+0 76157-4 0 9996 2 25397 99.0053 85.1420 0002317 78.4186 281.7252 14.24413470440804 ISS (ZARYA) 1 25544U 98067A 26094.06925453 .00011847 00000+0 22464-3 0 9996 2 25544 51.6326 306.8840 0006251 269.7954 90.2318 15.48758130560264 PCSAT (NO-44) 1 26931U 01043C 26094.26213189 .00000298 00000+0 14192-3 0 9990 2 26931 67.0497 75.4710 0006827 264.5436 95.4887 14.31926329279866 SAUDISAT 1C (SO-50) 1 27607U 02058C 26094.17794629 .00002448 00000+0 30473-3 0 9990 2 27607 64.5554 357.9396 0075469 275.9713 83.2796 14.82885960253488 CUTE-1 (CO-55) 1 27844U 03031E 26093.50286751 .00000567 00000+0 26456-3 0 9999 2 27844 98.6770 102.9944 0010387 47.9217 312.2844 14.24288225181048 CUBESAT XI-IV (CO-57) 1 27848U 03031J 26093.94602893 .00000464 00000+0 22289-3 0 9996 2 27848 98.6802 103.2044 0010511 63.1709 297.0543 14.23580366180818 MOZHAETS 4 (RS22) 1 27939U 03042A 26094.27826098 .00001305 00000+0 20976-3 0 9997 2 27939 98.3454 276.5553 0012104 138.8169 34.0969 14.73328780204664 CUBESAT XI-V 1 28895U 05043F 26093.92840076 .00003380 00000+0 54043-3 0 9992 2 28895 98.2882 248.0380 0015323 82.7657 277.5291 14.72431745 90825 CUTE-1.7+APD II (CO-65) 1 32785U 08021C 26094.25070638 .00009772 00000+0 62586-3 0 9992 2 32785 97.8239 74.1938 0007116 283.3320 76.7114 15.08746428974048 SEEDS II (CO-66) 1 32791U 08021J 26094.23743945 .00032687 00000+0 11161-2 0 9998 2 32791 97.7528 88.7558 0002917 161.1611 198.9737 15.30245025975977 YUBILEINY (RS30) 1 32953U 08025A 26094.30000257 .00000054 00000+0 31845-3 0 9997 2 32953 82.5054 41.3896 0020393 110.5957 249.7313 12.43177021810516 KKS-1 (KISEKI) 1 33499U 09002H 26094.24127065 .00003091 00000+0 38759-3 0 9994 2 33499 98.1190 15.5270 0008187 160.1323 200.0211 14.82931099925231 SWISSCUBE 1 35932U 09051B 26094.27417133 .00002034 00000+0 41221-3 0 9997 2 35932 98.4078 0.8689 0008097 83.1361 277.0761 14.62335375878357 BEESAT-1 1 35933U 09051C 26094.17725522 .00001677 00000+0 34725-3 0 9994 2 35933 98.4009 0.5587 0006535 94.9229 265.2718 14.61596567878378 ITUPSAT1 1 35935U 09051E 26094.24063622 .00001541 00000+0 32888-3 0 9998 2 35935 98.4094 359.8921 0008644 104.9075 255.3082 14.60326440877946 XIWANG-1 (HOPE-1) 1 36122U 09072B 26094.29673168 .00000398 00000+0 11570-2 0 9990 2 36122 100.3961 49.3330 0008041 45.6665 314.5106 13.16438811783287 O/OREOS (USA 219) 1 37224U 10062C 26093.85199841 .00005674 00000+0 54381-3 0 9997 2 37224 71.9703 248.6757 0015812 214.0698 145.9459 14.93434758105543 JUGNU 1 37839U 11058B 26094.05127480 .00000622 00000+0 18525-3 0 9996 2 37839 19.9619 38.8189 0018412 338.0893 108.9138 14.13753227748525 SRMSAT 1 37841U 11058D 26094.28010965 .00000496 00000+0 12556-3 0 9990 2 37841 19.9707 146.8101 0011924 110.2073 318.6980 14.11557455747360 STRAND-1 1 39090U 13009E 26093.97733624 .00000593 00000+0 21376-3 0 9993 2 39090 98.3906 276.0425 0009856 93.1051 267.1264 14.37118190686408 ZACUBE-1 (TSHEPISOSAT) 1 39417U 13066B 26093.87178787 .00009224 00000+0 71955-3 0 9999 2 39417 97.8146 55.8184 0044929 138.2329 222.2338 15.00579357669586 GOMX-1 1 39430U 13066Q 26094.29688122 .00002368 00000+0 36251-3 0 9992 2 39430 97.6537 299.4043 0128152 315.3293 43.7644 14.69201113659066 CUBEBUG-2 (LO-74) 1 39440U 13066AA 26094.29759255 .00007490 00000+0 69927-3 0 9996 2 39440 97.8855 43.0224 0056556 272.6349 86.8397 14.93261828665966 FUNCUBE-1 (AO-73) 1 39444U 13066AE 26094.18528427 .00016448 00000+0 10412-2 0 9990 2 39444 97.8232 64.1714 0039071 95.2943 265.2744 15.08416857668502 UWE-3 1 39446U 13066AG 26093.80688810 .00007966 00000+0 69038-3 0 9997 2 39446 97.8634 49.4472 0048895 206.0500 153.8259 14.96445183666457 UNISAT-6 1 40012U 14033C 26094.16414123 .00006162 00000+0 66817-3 0 9996 2 40012 97.7776 248.2403 0044226 313.5116 46.2428 14.87821522635159 DUCHIFAT-1 1 40021U 14033M 26094.17646504 .00103811 00000+0 16253-2 0 9994 2 40021 98.0575 143.6688 0003162 348.3303 11.7874 15.53368895644224 QB50P1 1 40025U 14033R 26093.58092979 .00015793 00000+0 79934-3 0 9990 2 40025 98.0999 99.5565 0010578 116.9605 243.2708 15.17064692641711 LILACSAT-2 1 40908U 15049K 26094.29855134 .00029371 00000+0 54162-3 0 9990 2 40908 97.4752 128.4238 0008433 148.8990 211.2761 15.49051323584305 FOX-1A (AO-85) 1 40967U 15058D 26094.22390213 .00004322 00000+0 39200-3 0 9995 2 40967 64.7745 148.7576 0128318 85.6580 275.9182 14.90539097102547 CAS-2T & KS-1Q 1 41847U 16066G 26094.19697582 .00001459 00000+0 21385-3 0 9991 2 41847 98.3851 170.7641 0342160 354.2629 5.4685 14.44538820494119 RADFXSAT (FOX-1B) 1 43017U 17073E 26094.15504960 .00015150 00000+0 67781-3 0 9997 2 43017 97.4813 322.9183 0152857 223.5495 135.3586 15.11425119454201 DIWATA-2B 1 43678U 18084H 26094.27088655 .00003440 00000+0 28063-3 0 9993 2 43678 98.1033 287.3592 0013922 51.9618 308.2859 15.00100365405136 ES'HAIL 2 1 43700U 18090A 26094.19419966 .00000143 00000+0 00000+0 0 9994 2 43700 0.0194 220.7704 0001207 158.3279 269.1593 1.00269150 26936 FOX-1CLIFF (AO-95) 1 43770U 18099N 26094.10637231 .00023564 00000+0 94062-3 0 9995 2 43770 97.4457 154.6911 0007699 242.7013 117.3441 15.25133637401929 ITASAT 1 43786U 18099AE 26094.08910567 .00014687 00000+0 72123-3 0 9995 2 43786 97.4110 147.1018 0011391 247.5141 112.4887 15.18114268401668 JY1SAT (JO-97) 1 43803U 18099AX 26094.11459963 .00034098 00000+0 11247-2 0 9994 2 43803 97.4202 156.8006 0006660 162.1825 197.9651 15.31338197402288 UWE-4 1 43880U 18111E 26094.26197585 .00053849 00000+0 12646-2 0 9998 2 43880 97.5859 19.5117 0006722 214.8535 145.2272 15.41827832399372 TIANYAN 01 1 44881U 19093C 26094.26702002 .00001162 00000+0 13761-3 0 9997 2 44881 97.7573 168.2947 0012977 336.1750 23.8863 14.86398407340437 RS-44 & BREEZE-KM R/B 1 44909U 19096E 26094.28072370 .00000021 00000+0 45188-4 0 9993 2 44909 82.5255 28.8105 0216813 317.4452 41.0020 12.79747790292896 SALSAT 1 46495U 20068K 26093.94381268 .00015678 00000+0 56347-3 0 9999 2 46495 97.8863 92.5537 0009436 192.6370 167.4633 15.28700775304012 XW-3 (CAS-9) 1 50466U 21131B 26094.26013400 .00000994 00000+0 32107-3 0 9993 2 50466 98.4952 187.0671 0003347 336.1467 23.9567 14.41285886224464 GREENCUBE (IO-117) 1 53109U 22080E 26090.98863878 -.00000003 00000+0 00000+0 0 9996 2 53109 70.1536 325.1039 0008975 306.3934 53.5898 6.42583190 87104 UMKA 1 (RS40S) 1 57172U 23091G 26094.25003423 .00012653 00000+0 58878-3 0 9992 2 57172 97.5119 153.2505 0013349 24.6398 335.5471 15.19999342152771 CUBESX-HSE 3 (RS42S) 1 57178U 23091N 26094.21813318 .00023821 00000+0 83458-3 0 9997 2 57178 97.5151 158.9533 0010642 2.5564 357.5728 15.29422428153114 MONITOR-3 (RS58S) 1 57180U 23091Q 26094.21960106 .00019701 00000+0 75691-3 0 9990 2 57180 97.5146 157.1820 0011767 8.3656 351.7777 15.26411137153006 MONITOR-4 (RS57S) 1 57182U 23091S 26094.26880419 .00020438 00000+0 78285-3 0 9996 2 57182 97.5139 157.1979 0011714 8.4165 351.7268 15.26504679153013 MONITOR-2 (RS39S) 1 57184U 23091U 26094.24822533 .00010139 00000+0 49745-3 0 9995 2 57184 97.5142 153.0186 0011567 18.1739 341.9906 15.18241671152734 SVYATOBOR 1 (RS60S) 1 57187U 23091X 26094.22326355 .00016994 00000+0 67430-3 0 9993 2 57187 97.5154 157.6776 0009242 2.7322 357.3964 15.25392665153036 VIZARD-METEO (RS38S) 1 57189U 23091Z 26094.21623276 .00031161 00000+0 95342-3 0 9992 2 57189 97.5144 162.3329 0006583 344.2389 15.8647 15.33765055153340 NANOZOND 1 (RS49S) 1 57190U 23091AA 26094.05568140 .00768682 24362-3 24119-2 0 9993 2 57190 97.4969 176.6006 0006913 260.7867 99.2625 15.91403842154289 POLYTECH-UNIVERSE 3 (R*) 1 57191U 23091AB 26094.21915632 .00010034 00000+0 48874-3 0 9999 2 57191 97.5121 152.4956 0016370 32.6262 327.5979 15.18435758152726 UTMN 2 (RS27S) 1 57203U 23091AP 26094.27722789 .00024090 00000+0 82228-3 0 9996 2 57203 97.5144 160.5555 0007585 350.9067 9.2035 15.30295860153233 KUZGTU 1 (RS47S) 1 57217U 23091AV 26094.21333262 .00022542 00000+0 81923-3 0 9990 2 57217 97.5124 158.0119 0010946 6.0693 354.0677 15.28230224153078 SONATE-2 1 59112U 24043Q 26093.92770309 .00066855 00000+0 10453-2 0 9992 2 59112 97.5445 240.1168 0007706 115.7700 244.4348 15.53524313116343 MESAT1 1 60209U 24125G 26094.05790031 .00081575 00000+0 11531-2 0 9995 2 60209 97.2402 310.2117 0012634 129.2887 230.9491 15.56175386 98014 OOV-CUBE (TUBSAT-30) 1 60240U 24128F 26094.25451486 .00003898 00000+0 29990-3 0 9994 2 60240 61.9933 123.3015 0052344 117.5940 243.0481 15.02418368 95009 COLIBRI-S (RS67S) 1 61746U 24199M 26094.21850722 .00036554 00000+0 78037-3 0 9997 2 61746 97.3106 327.5216 0009076 177.7667 182.3624 15.44739964125984 HORS 3 (RS81S) 1 61753U 24199U 26094.22395791 .00053969 00000+0 94995-3 0 9996 2 61753 97.3076 328.8233 0007203 177.5174 182.6115 15.50259183126089 HORS 4 (RS82S) 1 61754U 24199V 26094.24216250 .00068436 00000+0 10695-2 0 9990 2 61754 97.3047 329.6464 0006868 172.4140 187.7219 15.53537653126148 HORIZON (RS59S) 1 61757U 24199Y 26094.23529860 .00315926 00000+0 16845-2 0 9998 2 61757 97.2986 334.3276 0006442 149.1437 211.0211 15.79537794126444 ARCTICSAT 1 (RS74S) 1 61762U 24199AD 26094.21291803 .00209980 00000+0 15626-2 0 9993 2 61762 97.3019 333.6101 0006629 146.5710 213.5973 15.72154489126394 SIT-2086 1 61764U 24199AF 26094.25048095 .00041589 00000+0 76505-3 0 9995 2 61764 97.3067 329.5427 0007136 166.2059 193.9388 15.49060647122970 HYPERVIEW 1G (RS66S) 1 61772U 24199AP 26094.22507442 .00116388 00000+0 13179-2 0 9994 2 61772 97.3021 331.0245 0008248 171.8336 188.3058 15.61992726123081 ALTAIR (RS65S) 1 61779U 24199AW 26094.25095656 .00019302 00000+0 55752-3 0 9995 2 61779 97.3133 324.1217 0012418 204.6389 155.4263 15.35623391125761 ASRTU-1 (AO-123) 1 61781U 24199AY 26094.24669723 .00015294 00000+0 45702-3 0 9999 2 61781 97.3105 323.5976 0013293 207.6270 152.4268 15.34592296122589 TUSUR GO (RS78S) 1 61782U 24199AZ 26094.22962838 .00395247 00000+0 19046-2 0 9991 2 61782 97.2935 333.3594 0006788 159.6820 200.4720 15.81560269123241 SAMSAT-IONOSPHERE (RS7*) 1 61784U 24199BB 26094.22623976 .00064226 00000+0 10683-2 0 9998 2 61784 97.3060 328.6669 0009872 182.0586 178.0628 15.51786029126071 RTU MIREA 1 (RS51S) 1 61785U 24199BC 26094.25438822 .00075805 00000+0 11606-2 0 9997 2 61785 97.3059 329.2209 0009964 179.6068 180.5195 15.54047372122961 TEVEL2-4 1 63213U 25052D 26094.24181789 .00035280 00000+0 11372-2 0 9993 2 63213 97.3986 350.6242 0003570 47.9687 312.1858 15.32084733 58789 TEVEL2-5 1 63214U 25052E 26094.18958867 .00035027 00000+0 11341-2 0 9991 2 63214 97.3985 350.5387 0003574 48.4718 311.6830 15.31944758 58777 TEVEL2-6 1 63215U 25052F 26093.15493678 .00033764 00000+0 10973-2 0 9998 2 63215 97.3990 349.4910 0003775 49.6169 310.5402 15.31832415 58611 TEVEL2-1 1 63217U 25052H 26093.68283306 .00031726 00000+0 10448-2 0 9996 2 63217 97.3960 349.7254 0004237 56.9591 303.2057 15.31416357 58683 TEVEL2-3 1 63218U 25052J 26094.20250110 .00033317 00000+0 10942-2 0 9990 2 63218 97.3960 350.2573 0004166 56.4803 303.6836 15.31493534 58767 TEVEL2-2 1 63219U 25052K 26094.14082454 .00035474 00000+0 11660-2 0 9992 2 63219 97.3961 350.1827 0004152 56.8786 303.2854 15.31454378 58757 TEVEL2-9 1 63237U 25052AD 26094.22372042 .00030644 00000+0 10645-2 0 9992 2 63237 97.4028 349.7885 0007963 55.6709 304.5284 15.29669871 58715 TEVEL2-7 1 63238U 25052AE 26094.25181011 .00031843 00000+0 11140-2 0 9993 2 63238 97.4015 349.7609 0007965 56.0671 304.1325 15.29432762 58710 TEVEL2-8 1 63239U 25052AF 26094.25918907 .00030895 00000+0 10818-2 0 9993 2 63239 97.4023 349.7483 0008024 56.9974 303.2036 15.29410247 58715 HADES-ICM 1 63492U 25052BN 26094.14646184 .00373306 00000+0 34399-2 0 9994 2 63492 97.3885 355.6735 0006436 76.5189 283.6788 15.66453121 59117 INNOSAT 16 (RS92S7) 1 64878U 25155C 26094.25159713 .00012979 00000+0 52765-3 0 9990 2 64878 97.4509 61.6925 0012653 87.3337 272.9349 15.24603274 69405 GEOSCAN 6 (RS92S6) 1 64879U 25155D 26094.24992805 .00020724 00000+0 74328-3 0 9993 2 64879 97.4507 62.6265 0010154 82.7043 277.5351 15.28689037 69464 GEOSCAN 1 (RS92S1) 1 64880U 25155E 26094.21280319 .00022386 00000+0 79103-3 0 9994 2 64880 97.4503 62.6798 0010111 83.1417 277.0973 15.29160919 69465 239ALFEROV (RS61S) 1 64881U 25155F 26094.21149171 .00027279 00000+0 91284-3 0 9995 2 64881 97.4507 63.0167 0009816 82.9630 277.2727 15.30893553 69489 GEOSCAN 2 (RS92S2) 1 64890U 25155Q 26094.22015032 .00021566 00000+0 75546-3 0 9990 2 64890 97.4502 62.8090 0009288 73.1120 287.1138 15.29459362 69474 GEOSCAN 5 (RS92S5) 1 64891U 25155R 26094.21611881 .00028254 00000+0 93589-3 0 9992 2 64891 97.4499 63.1299 0008725 88.2435 271.9805 15.31225186 69498 GEOSCAN 4 (RS92S4) 1 64892U 25155S 26094.20670228 .00027756 00000+0 91626-3 0 9998 2 64892 97.4503 63.1503 0008743 88.7984 271.4259 15.31338577 69494 GEOSCAN 3 (RS92S3) 1 64893U 25155T 26094.22639570 .00033062 00000+0 10398-2 0 9999 2 64893 97.4492 63.4131 0008599 89.9257 270.2970 15.32858168 69511 INNOSAT 3 (RS92S0) 1 64894U 25155U 26094.23401943 .00063184 00000+0 16349-2 0 9992 2 64894 97.4459 64.2724 0008462 91.5226 268.6989 15.38818630 69579 KNACKSAT-2 1 67683U 98067XZ 26093.95420513 .00065956 00000+0 99573-3 0 9995 2 67683 51.6305 306.1177 0010514 279.0913 80.8888 15.54059237 8716